Home   Weather   Reutte   Past weeks

Flag for Austria Past Weather in Reutte, Tyrol, Austria — Yesterday and Last 2 Weeks

Now
59 °F

Cool.


Feels Like: 59 °F
Forecast: 48 / 63 °F
Wind: 1 mph from Northwest

Location: Landeck

Current Time: Aug 19, 2017 at 9:08:36 pm

Latest Report: Aug 19, 2017 at 8:00 pm


Visibility: N/A

Pressure: 30.11 "Hg (27.21 "Hg at 856m altitude)

Humidity: 86%

Dew Point: 55 °F

Location of ReutteLocation

Past Weather in Reutte — Graph

°F

Reutte Temperature Yesterday

Maximum temperature yesterday: 81 °F (at 4:00 pm)
Minimum temperature yesterday: 59 °F (at 6:00 am)
Average temperature yesterday: 70 °F

High & Low Weather Summary for the Past Weeks

 TemperatureHumidityPressure
High86 °F (Aug 5, 3:00 pm)94% (Aug 6, 11:00 pm)30.23 "Hg (Aug 6, 11:00 pm)
Low50 °F (Aug 12, 5:00 am)31% (Aug 15, 3:00 pm)29.74 "Hg (Aug 8, 4:00 pm)
Average65 °F75%30.04 "Hg
* Reported Aug 4 7:00 pm — Aug 19 7:00 pm, Reutte. Weather by CustomWeather, © 2017

Note: Actual official high and low records may vary slightly from our data, if they occured in-between our weather recording intervals... More about our weather records

Advertising

Reutte Weather History for the Previous 24 Hours

Scroll right to see more
 ConditionsComfort  
Time TempWeatherWind HumidityBarometerVisibility
7:00 pm
Sat, Aug 19
61 °FCool.No wind83%30.09 "HgN/A
6:00 pm61 °FSprinkles. Cloudy.No wind81%30.09 "HgN/A
5:00 pm62 °FCool.No wind81%30.07 "HgN/A
4:00 pm63 °FMild.1 mph76%30.06 "HgN/A
3:00 pmN/APassing clouds.12 mphN/AN/A13 mi
2:00 pm65 °FMild.1 mph69%30.04 "HgN/A
1:00 pm62 °FMild.1 mph79%30.07 "HgN/A
12:00 pm63 °FMild.1 mph82%30.06 "HgN/A
11:00 am61 °FCool.1 mph86%30.07 "HgN/A
10:00 am60 °FCool.1 mph92%30.08 "HgN/A
9:00 am59 °FCool.2 mph92%30.06 "HgN/A
8:00 am60 °FCool.No wind93%30.05 "HgN/A
7:00 am60 °FCool.2 mph93%30.04 "HgN/A
6:00 am60 °FCool.1 mph93%30.03 "HgN/A
5:00 am61 °FCool.No wind93%30.03 "HgN/A
4:00 am61 °FFog.2 mph91%30.03 "HgN/A
3:00 am62 °FCool.No wind90%30.03 "HgN/A
2:00 am62 °FCool.1 mph89%30.02 "HgN/A
1:00 am63 °FMild.1 mph83%30.02 "HgN/A
12:00 am64 °FMild.1 mph83%30.01 "HgN/A
11:00 pm
Fri, Aug 18
65 °FFog.1 mph75%30.01 "HgN/A
10:00 pm76 °FMild.6 mph48%29.87 "HgN/A
9:00 pmN/APassing clouds.14 mphN/AN/A2 mi
Weather by CustomWeather, © 2017

See weather overviewHow to use our weather pages